| time (UTC) | temp C | wind direction | speed KPH | gust KPH | rain 1hr cm | rain 24hr cm | rain mn cm | humidity % | barometer mb |
| 20260503225030 | 13 | 357 | 4.8 | 9.7 | 0.00 | 2.87 | 0.25 | 99 | 1014.6 |
| 20260503224028 | 12 | 347 | 4.8 | 8.0 | 0.00 | 2.87 | 0.25 | 99 | 1014.5 |
| 20260503223025 | 12 | 352 | 3.2 | 6.4 | 0.00 | 2.84 | 0.23 | 99 | 1014.5 |
| 20260503222043 | 12 | 21 | 3.2 | 4.8 | 0.00 | 2.87 | 0.23 | 99 | 1014.5 |
| 20260503221020 | 12 | 34 | 3.2 | 4.8 | 0.00 | 2.87 | 0.23 | 99 | 1014.5 |
| 20260503220018 | 12 | 55 | 3.2 | 4.8 | 0.00 | 2.87 | 0.23 | 99 | 1014.4 |
| 20260503215035 | 11 | 63 | 3.2 | 4.8 | 0.00 | 2.87 | 0.23 | 99 | 1014.5 |
| 20260503214034 | 11 | 76 | 3.2 | 4.8 | 0.00 | 2.87 | 0.23 | 98 | 1014.4 |
| 20260503213031 | 11 | 47 | 3.2 | 3.2 | 0.00 | 2.87 | 0.23 | 98 | 1014.2 |
| 20260503212028 | 11 | 51 | 1.6 | 4.8 | 0.00 | 2.87 | 0.23 | 98 | 1014.2 |
| 20260503211026 | 11 | 48 | 1.6 | 3.2 | 0.00 | 2.87 | 0.23 | 98 | 1014.0 |
| 20260503210024 | 11 | 37 | 1.6 | 4.8 | 0.00 | 2.87 | 0.23 | 98 | 1014.0 |
| 20260503205021 | 11 | 47 | 3.2 | 6.4 | 0.00 | 2.87 | 0.23 | 98 | 1013.7 |
| 20260503204019 | 11 | 70 | 3.2 | 4.8 | 0.00 | 2.87 | 0.23 | 98 | 1013.6 |
| 20260503203017 | 11 | 70 | 3.2 | 4.8 | 0.00 | 2.87 | 0.23 | 98 | 1013.6 |
| 20260503202034 | 11 | 58 | 3.2 | 4.8 | 0.00 | 2.87 | 0.23 | 98 | 1013.7 |
| 20260503201032 | 11 | 53 | 1.6 | 4.8 | 0.00 | 2.87 | 0.23 | 98 | 1013.6 |
| 20260503200030 | 11 | 51 | 3.2 | 4.8 | 0.00 | 2.87 | 0.23 | 98 | 1013.5 |
| 20260503195027 | 11 | 45 | 3.2 | 4.8 | 0.00 | 2.87 | 0.23 | 98 | 1013.2 |
| 20260503194025 | 11 | 53 | 3.2 | 4.8 | 0.00 | 2.87 | 0.23 | 98 | 1013.3 |
| 20260503193022 | 11 | 51 | 3.2 | 4.8 | 0.00 | 2.87 | 0.23 | 98 | 1013.4 |
| 20260503192020 | 11 | 55 | 3.2 | 4.8 | 0.00 | 2.87 | 0.23 | 98 | 1013.2 |
| 20260503191017 | 11 | 54 | 3.2 | 4.8 | 0.00 | 2.87 | 0.23 | 98 | 1013.0 |
| 20260503190035 | 11 | 42 | 1.6 | 4.8 | 0.00 | 2.87 | 0.23 | 98 | 1013.0 |
| 20260503185033 | 12 | 61 | 4.8 | 6.4 | 0.00 | 2.87 | 0.23 | 98 | 1013.0 |
| 20260503184051 | 12 | 35 | 4.8 | 9.7 | 0.00 | 2.87 | 0.23 | 98 | 1013.1 |
| 20260503183028 | 12 | 40 | 3.2 | 6.4 | 0.00 | 2.87 | 0.23 | 98 | 1013.3 |
| 20260503182025 | 12 | 10 | 1.6 | 4.8 | 0.00 | 2.87 | 0.23 | 98 | 1013.3 |
| 20260503181023 | 12 | 44 | 1.6 | 3.2 | 0.05 | 2.87 | 0.23 | 98 | 1013.0 |
| 20260503180021 | 12 | 81 | 3.2 | 4.8 | 0.13 | 2.87 | 0.23 | 98 | 1012.8 |
| 20260503175018 | 12 | 47 | 3.2 | 4.8 | 0.13 | 2.87 | 0.23 | 98 | 1013.0 |
| 20260503174016 | 12 | 82 | 3.2 | 4.8 | 0.13 | 2.87 | 0.23 | 98 | 1013.0 |
| 20260503173033 | 12 | 53 | 1.6 | 3.2 | 0.15 | 2.87 | 0.23 | 98 | 1013.2 |
| 20260503172031 | 12 | 45 | 3.2 | 4.8 | 0.13 | 2.87 | 0.23 | 98 | 1013.2 |
| 20260503171029 | 12 | 353 | 3.2 | 6.4 | 0.10 | 2.82 | 0.18 | 98 | 1013.5 |
| 20260503131031 | 14 | 205 | 4.8 | 12.9 | 0.15 | 2.62 | 2.62 | 97 | 1013.5 |
| 20260503081019 | 17 | 261 | 6.4 | 9.7 | 0.13 | 0.20 | 0.20 | 91 | 1013.5 |
| 20260503072048 | 19 | 337 | 8.0 | 16.1 | 0.00 | 0.08 | 0.08 | 80 | 1012.5 |
| 20260503071025 | 19 | 325 | 9.7 | 22.5 | 0.00 | 0.08 | 0.08 | 80 | 1012.4 |
| 20260503055026 | 20 | 355 | 12.9 | 25.7 | 0.00 | 0.08 | 0.08 | 78 | 1011.7 |
| 20260503054023 | 20 | 354 | 12.9 | 25.7 | 0.00 | 0.08 | 0.08 | 77 | 1011.5 |
| 20260503053021 | 20 | 355 | 14.5 | 27.4 | 0.00 | 0.08 | 0.08 | 74 | 1011.5 |
| 20260503052018 | 20 | 13 | 12.9 | 27.4 | 0.00 | 0.08 | 0.08 | 73 | 1011.7 |
| 20260503051016 | 20 | 358 | 12.9 | 25.7 | 0.00 | 0.08 | 0.08 | 73 | 1012.0 |
| 20260503050034 | 20 | 355 | 11.3 | 19.3 | 0.00 | 0.08 | 0.08 | 73 | 1012.1 |
| 20260503045031 | 20 | 355 | 11.3 | 29.0 | 0.00 | 0.08 | 0.08 | 72 | 1012.2 |
| 20260503044029 | 21 | 355 | 11.3 | 25.7 | 0.00 | 0.08 | 0.08 | 71 | 1012.4 |
| 20260503043026 | 21 | 337 | 14.5 | 29.0 | 0.00 | 0.08 | 0.08 | 70 | 1012.4 |
| 20260503042024 | 21 | 349 | 11.3 | 20.9 | 0.00 | 0.08 | 0.08 | 69 | 1012.4 |
| 20260503041021 | 21 | 349 | 12.9 | 24.1 | 0.00 | 0.08 | 0.08 | 66 | 1012.4 |
| 20260503040019 | 22 | 337 | 12.9 | 24.1 | 0.00 | 0.08 | 0.08 | 65 | 1012.6 |
| 20260503035017 | 22 | 341 | 14.5 | 30.6 | 0.00 | 0.08 | 0.08 | 63 | 1012.7 |
| 20260503034035 | 22 | 342 | 12.9 | 27.4 | 0.00 | 0.08 | 0.08 | 62 | 1012.6 |
| 20260503033032 | 22 | 329 | 11.3 | 24.1 | 0.00 | 0.08 | 0.08 | 61 | 1012.6 |
| 20260503032030 | 22 | 341 | 12.9 | 24.1 | 0.00 | 0.08 | 0.08 | 60 | 1012.7 |
| 20260503031027 | 23 | 340 | 12.9 | 24.1 | 0.00 | 0.08 | 0.08 | 59 | 1012.7 |
| 20260503030025 | 23 | 343 | 14.5 | 27.4 | 0.00 | 0.08 | 0.08 | 60 | 1012.8 |
| 20260503025023 | 23 | 342 | 16.1 | 27.4 | 0.00 | 0.08 | 0.08 | 60 | 1012.9 |
| 20260503024101 | 23 | 334 | 12.9 | 27.4 | 0.00 | 0.08 | 0.08 | 60 | 1012.9 |
| 20260503023018 | 22 | 4 | 9.7 | 20.9 | 0.00 | 0.08 | 0.08 | 62 | 1013.0 |
| 20260503022036 | 22 | 355 | 11.3 | 22.5 | 0.00 | 0.08 | 0.08 | 63 | 1013.1 |
| 20260503021033 | 22 | 3 | 9.7 | 20.9 | 0.00 | 0.08 | 0.08 | 63 | 1013.3 |
| 20260503020051 | 22 | 348 | 16.1 | 30.6 | 0.00 | 0.08 | 0.08 | 63 | 1013.5 |
| 20260503015028 | 22 | 340 | 11.3 | 25.7 | 0.00 | 0.08 | 0.08 | 65 | 1013.6 |
| 20260503014026 | 21 | 352 | 11.3 | 29.0 | 0.00 | 0.08 | 0.08 | 68 | 1013.7 |
| 20260503013023 | 21 | 3 | 8.0 | 19.3 | 0.00 | 0.08 | 0.08 | 69 | 1013.8 |
| 20260503012041 | 21 | 357 | 11.3 | 24.1 | 0.00 | 0.08 | 0.08 | 69 | 1013.9 |
| 20260503011039 | 21 | 356 | 16.1 | 27.4 | 0.00 | 0.08 | 0.08 | 64 | 1014.0 |
| 20260503010037 | 21 | 358 | 16.1 | 30.6 | 0.00 | 0.08 | 0.08 | 64 | 1014.0 |
| 20260503005034 | 21 | 4 | 16.1 | 32.2 | 0.00 | 0.08 | 0.08 | 65 | 1014.0 |
| 20260503004032 | 20 | 359 | 14.5 | 30.6 | 0.00 | 0.08 | 0.08 | 66 | 1014.2 |
| 20260503003030 | 20 | 347 | 11.3 | 27.4 | 0.00 | 0.08 | 0.08 | 68 | 1014.4 |
| 20260503002027 | 20 | 3 | 12.9 | 25.7 | 0.03 | 0.08 | 0.08 | 69 | 1014.6 |
| 20260503001045 | 20 | 359 | 12.9 | 25.7 | 0.05 | 0.08 | 0.08 | 70 | 1014.7 |
| 20260503000022 | 19 | 22 | 11.3 | 24.1 | 0.05 | 0.08 | 0.08 | 72 | 1014.8 |
| 20260502235019 | 18 | 8 | 11.3 | 24.1 | 0.05 | 0.08 | 0.08 | 74 | 1014.7 |
| 20260502234017 | 18 | 25 | 14.5 | 25.7 | 0.05 | 0.08 | 0.08 | 76 | 1014.9 |
| 20260502233035 | 18 | 2 | 8.0 | 12.9 | 0.05 | 0.08 | 0.08 | 78 | 1015.2 |
| 20260502232033 | 18 | 352 | 9.7 | 17.7 | 0.05 | 0.05 | 0.05 | 76 | 1015.3 |
| 20260502231030 | 18 | 2 | 8.0 | 17.7 | 0.03 | 0.03 | 0.03 | 74 | 1015.4 |
| 20260502230048 | 18 | 2 | 9.7 | 22.5 | 0.03 | 0.03 | 0.03 | 75 | 1015.4 |